Simultaneous Nadir Overpasses (SNOs) Predictions

Prediction of SNOs between FY3D and METOP-A Satellite Orbit:

Table of predicted SNOs for the next 14.0 days since TLE Epoch: 2/7/2020
Index Date (FY3D) Time (FY3D) Lat,Lon (FY3D) SZA (FY3D ) Date (METOP-A) Time (METOP-A) Lat,Lon (METOP-A) SZA (METOP-A ) Distance(km) Time Diff (sec)
1 02/15/2020 15:37:08 -75.89, 110.60 90.77 02/15/2020 15:38:13 -75.82, 114.12 91.09 96.08 65
2 02/15/2020 16:27:49 75.69, -81.46 88.99 02/15/2020 16:28:57 75.63, -79.15 88.75 64.05 68
3 02/15/2020 17:18:30 -75.56, 86.29 91.18 02/15/2020 17:19:41 -75.52, 87.84 91.35 43.42 71
4 02/15/2020 18:09:12 75.41,-105.93 88.63 02/15/2020 18:10:24 75.37,-105.27 88.52 19.21 72
5 02/15/2020 18:59:54 -75.32, 61.65 91.49 02/15/2020 19:01:07 -75.31, 61.88 91.54 6.50 73
6 02/15/2020 19:50:38 75.26,-130.86 88.44 02/15/2020 19:51:48 75.25,-130.94 88.41 2.55 70
7 02/15/2020 20:41:22 -75.27, 36.44 91.58 02/15/2020 20:42:29 -75.29, 36.48 91.58 2.59 67
8 02/15/2020 21:32:07 75.26,-156.22 88.41 02/15/2020 21:33:09 75.28,-156.20 88.41 2.66 62
9 02/15/2020 22:22:51 -75.26, 11.08 91.61 02/15/2020 22:23:51 -75.27, 11.08 91.62 0.57 60
10 02/15/2020 23:13:36 75.25, 178.42 88.38 02/15/2020 23:14:31 75.26, 178.40 88.37 1.15 55
11 02/16/2020 00:04:20 -75.26, -14.28 91.63 02/16/2020 00:05:13 -75.25, -14.31 91.66 1.57 53
12 02/16/2020 00:55:05 75.25, 153.06 88.35 02/16/2020 00:55:53 75.24, 153.00 88.33 2.05 48
13 02/16/2020 01:45:49 -75.25, -39.63 91.66 02/16/2020 01:46:34 -75.28, -39.57 91.66 2.99 45
14 02/16/2020 02:36:34 75.25, 127.71 88.32 02/16/2020 02:37:14 75.27, 127.74 88.33 2.90 40
15 02/16/2020 03:27:18 -75.25, -64.99 91.69 02/16/2020 03:27:56 -75.26, -64.97 91.70 0.93 38
16 02/16/2020 04:18:03 75.24, 102.35 88.29 02/16/2020 04:18:36 75.25, 102.34 88.29 1.04 33
17 02/16/2020 05:08:47 -75.25, -90.35 91.72 02/16/2020 05:09:18 -75.24, -90.37 91.74 1.13 31
18 02/16/2020 05:59:32 75.24, 76.99 88.26 02/16/2020 05:59:58 75.23, 76.94 88.25 1.56 26
19 02/16/2020 06:50:16 -75.24,-115.71 91.75 02/16/2020 06:50:40 -75.22,-115.77 91.78 3.19 24
20 02/16/2020 07:41:01 75.23, 51.63 88.23 02/16/2020 07:41:19 75.26, 51.68 88.25 3.20 18
21 02/16/2020 08:31:45 -75.24,-141.07 91.78 02/16/2020 08:32:01 -75.25,-141.03 91.78 1.38 16
22 02/16/2020 09:22:30 75.23, 26.27 88.20 02/16/2020 09:22:41 75.24, 26.28 88.21 1.16 11
23 02/16/2020 10:13:14 -75.23,-166.42 91.81 02/16/2020 10:13:23 -75.23,-166.43 91.82 0.78 9
24 02/16/2020 11:03:59 75.22, 0.92 88.17 02/16/2020 11:04:03 75.22, 0.88 88.17 1.07 4
25 02/16/2020 11:54:43 -75.23, 168.22 91.84 02/16/2020 11:54:45 -75.21, 168.17 91.86 2.80 2
26 02/16/2020 12:45:28 75.22, -24.44 88.14 02/16/2020 12:45:25 75.20, -24.51 88.13 3.10 3
27 02/16/2020 13:36:12 -75.22, 142.86 91.87 02/16/2020 13:36:06 -75.23, 142.91 91.86 1.86 6
28 02/16/2020 14:26:57 75.22, -49.80 88.11 02/16/2020 14:26:46 75.23, -49.77 88.12 1.46 11
29 02/16/2020 15:17:41 -75.22, 117.50 91.90 02/16/2020 15:17:28 -75.21, 117.52 91.90 0.68 13
30 02/16/2020 16:08:26 75.21, -75.16 88.08 02/16/2020 16:08:08 75.21, -75.17 88.08 0.62 18
31 02/16/2020 16:59:10 -75.21, 92.15 91.93 02/16/2020 16:58:50 -75.19, 92.12 91.94 2.44 20
32 02/16/2020 17:49:55 75.21,-100.52 88.05 02/16/2020 17:49:30 75.19,-100.57 88.05 2.70 25
33 02/16/2020 18:40:39 -75.21, 66.79 91.96 02/16/2020 18:40:11 -75.22, 66.86 91.95 2.35 28
34 02/16/2020 19:31:24 75.20,-125.88 88.02 02/16/2020 19:30:51 75.21,-125.83 88.04 1.86 33
35 02/16/2020 20:22:08 -75.21, 41.43 91.99 02/16/2020 20:21:33 -75.20, 41.46 91.98 0.91 35
36 02/16/2020 21:12:53 75.20,-151.23 87.99 02/16/2020 21:12:13 75.19,-151.23 88.00 0.40 40
37 02/16/2020 22:03:37 -75.20, 16.07 92.02 02/16/2020 22:02:55 -75.18, 16.06 92.02 2.15 42
38 02/16/2020 22:54:22 75.19,-176.59 87.96 02/16/2020 22:53:35 75.17,-176.63 87.96 2.35 47
39 02/16/2020 23:45:06 -75.20, -9.29 92.05 02/16/2020 23:44:16 -75.21, -9.20 92.03 2.85 50
40 02/17/2020 00:35:51 75.19, 158.05 87.94 02/17/2020 00:34:56 75.20, 158.11 87.96 2.31 55
41 02/17/2020 01:26:35 -75.19, -34.64 92.08 02/17/2020 01:25:38 -75.19, -34.60 92.07 1.32 57
42 02/17/2020 02:17:19 75.19, 132.69 87.91 02/17/2020 02:16:17 75.18, 132.71 87.92 0.69 62
43 02/17/2020 03:08:03 -75.19, -60.00 92.11 02/17/2020 03:06:59 -75.17, -60.00 92.11 1.97 64
44 02/17/2020 03:58:48 75.18, 107.33 87.88 02/17/2020 03:57:39 75.16, 107.31 87.88 2.08 69
45 02/17/2020 04:49:32 -75.18, -85.36 92.14 02/17/2020 04:48:20 -75.20, -85.26 92.11 3.36 72
46 02/17/2020 05:40:16 75.13, 82.11 87.79 02/17/2020 05:39:02 75.09, 81.78 87.80 10.27 74
47 02/17/2020 06:30:58 -75.04,-110.30 92.33 02/17/2020 06:29:45 -75.03,-111.06 92.26 21.80 73
48 02/17/2020 07:21:39 74.84, 57.58 87.43 02/17/2020 07:20:29 74.83, 55.72 87.58 54.15 70
49 02/17/2020 08:12:21 -74.75,-134.85 92.70 02/17/2020 08:11:13 -74.72,-137.25 92.52 70.18 68




NCC Satellite Simultaneous Nadir Overpasses (SNOs) Prediction Service
